This is the latest recevied weather packets stored in our database for station/object RK6MF-10. If no packets are shown the sender has not sent any weather packets the latest 10 day(s).
| Time | Temp. | Humidity | Pressure | Rain* | Wind** | Luminosity | Snow |
|---|---|---|---|---|---|---|---|
| 1777445788 | 11.11° C | 76% | 1015.5 hPa | - | - | - | - |
| 1777444888 | 9.44° C | 82% | 1015.2 hPa | - | - | - | - |
| 1777443988 | 8.89° C | 81% | 1015.4 hPa | - | - | - | - |
| 1777443088 | 9.44° C | 78% | 1015.4 hPa | - | - | - | - |
| 1777442188 | 8.89° C | 84% | 1015.2 hPa | - | - | - | - |
| 1777441287 | 8.33° C | 83% | 1015.3 hPa | - | - | - | - |
| 1777440387 | 8.89° C | 78% | 1015.3 hPa | - | - | - | - |
| 1777439487 | 8.89° C | 84% | 1015.1 hPa | - | - | - | - |
| 1777438587 | 8.89° C | 82% | 1015.1 hPa | - | - | - | - |
| 1777437687 | 8.33° C | 84% | 1015 hPa | - | - | - | - |
| 1777436787 | 8.89° C | 84% | 1015.2 hPa | - | - | - | - |
| 1777435886 | 8.33° C | 92% | 1015.1 hPa | - | - | - | - |
| 1777434088 | 7.22° C | 100% | 1015 hPa | - | - | - | - |
| 1777433188 | 6.11° C | 100% | 1014.9 hPa | - | - | - | - |
| 1777432288 | 5° C | 100% | 1014.8 hPa | - | - | - | - |
| 1777431388 | 3.89° C | 100% | 1014.7 hPa | - | - | - | - |
| 1777430488 | 4.44° C | 100% | 1014.5 hPa | - | - | - | - |
| 1777429588 | 4.44° C | 100% | 1014.3 hPa | - | - | - | - |
| 1777428688 | 5° C | 100% | 1014.2 hPa | - | - | - | - |
| 1777427788 | 5° C | 100% | 1014.2 hPa | - | - | - | - |
| 1777426888 | 5.56° C | 100% | 1014.3 hPa | - | - | - | - |
| 1777425988 | 5.56° C | 100% | 1014.3 hPa | - | - | - | - |
| 1777425087 | 5° C | 100% | 1014.3 hPa | - | - | - | - |
| 1777424187 | 6.11° C | 100% | 1014.4 hPa | - | - | - | - |
| 1777423287 | 5.56° C | 100% | 1014.2 hPa | - | - | - | - |
* Rain since midnight (hover to see other rain measurements)
** Current wind speed in m/s (hover to see current wind gust speed)